1506582000.3,26220,16.0,74742.0,9.01,-31.17,-31.67,0,*76
1506582001.53,26221,16.0,74742.5,9.01,-31.01,-31.45,0,*70
1506582002.78,26222,16.0,74740.0,9.01,-31.29,-31.61,0,*7F
1506582004.0,26223,16.0,74738.5,9.01,-31.29,-31.67,0,*78
1506582005.22,26224,16.0,74740.5,9.01,-31.67,-32.01,0,*76
1506582006.44,26225,16.0,74738.0,9.01,-31.33,-31.67,0,*75
1506582007.72,26226,16.0,74738.5,9.01,-31.51,-31.85,0,*7E
1506582008.94,26227,16.0,74738.3,9.01,-31.29,-31.67,0,*7C
1506582010.22,26228,16.0,74742.8,9.01,-31.85,-32.19,0,*7F
1506582011.48,26229,16.0,74738.8,9.01,-32.07,-32.51,0,*7B
1506582012.69,26230,16.0,74742.0,8.99,-31.67,-31.91,0,*79
1506582013.97,26231,16.0,74740.3,8.97,-31.57,-31.95,0,*71
1506582015.24,26232,16.0,74740.0,8.97,-32.29,-32.63,0,*72
1506582016.49,26233,16.0,74740.0,8.97,-31.67,-31.95,0,*70
1506582017.7,26234,16.0,74744.0,8.99,-31.51,-32.13,0,*71
1506582018.95,26235,16.0,74740.3,8.97,-31.67,-31.91,0,*72
1506582020.17,26236,16.0,74740.8,8.95,-31.73,-32.01,0,*7C
1506582021.39,26237,16.0,74740.3,8.95,-31.61,-31.79,0,*72
1506582022.64,26238,16.0,74740.5,8.95,-31.23,-31.57,0,*77
1506582023.84,26239,16.0,74742.5,8.95,-31.45,-31.79,0,*7A
1506582025.08,26240,16.0,74742.8,8.95,-31.61,-31.85,0,*71
1506582026.31,26241,16.0,74736.5,8.95,-31.79,-31.95,0,*78
1506582027.53,26242,16.0,74738.3,8.95,-31.57,-31.79,0,*75
1506582028.78,26243,16.0,74738.5,8.93,-32.07,-32.23,0,*78
1506582030.04,26244,16.0,74742.8,8.93,-32.07,-32.39,0,*74
1506582031.26,26245,16.0,74738.3,8.95,-31.85,-32.13,0,*72
1506582032.5,26246,16.0,74742.5,8.95,-31.11,-31.57,0,*7F
1506582033.75,26247,16.0,74742.5,8.93,-31.11,-31.33,0,*7A
1506582034.97,26248,16.0,74742.0,8.93,-31.29,-31.67,0,*7F
1506582036.23,26249,16.0,74738.3,8.95,-31.73,-31.95,0,*7A
1506582037.48,26250,16.0,74736.5,8.93,-31.45,-31.85,0,*70
1506582038.73,26251,16.0,74736.3,8.93,-31.29,-31.61,0,*71
1506582039.98,26252,16.0,74736.5,8.93,-30.89,-31.17,0,*78
1506582041.19,26253,16.0,74742.8,8.95,-31.05,-31.57,0,*7E
1506582042.41,26254,16.0,74740.5,8.93,-31.33,-31.79,0,*76
1506582043.66,26255,16.0,74746.5,8.93,-31.79,-32.19,0,*7C
1506582044.91,26256,16.0,74736.5,8.93,-31.29,-31.51,0,*75
1506582046.19,26257,16.0,74742.5,8.93,-30.95,-31.11,0,*76
1506582047.41,26258,16.0,74742.0,8.93,-31.01,-31.29,0,*7E
1506582048.64,26259,16.0,74738.5,8.93,-31.17,-31.45,0,*72
1506582049.85,26260,16.06,74742.0,8.93,-31.01,-31.33,0,*7E
1506582051.1,26261,16.0,74742.5,8.93,-31.11,-31.33,0,*7E
1506582052.35,26262,16.0,74736.0,8.93,-31.17,-31.61,0,*7C
1506582053.61,26263,16.0,74740.5,8.93,-30.55,-30.95,0,*70
1506582054.87,26264,16.0,74738.5,8.95,-30.51,-30.77,0,*79
1506582056.09,26265,16.06,74740.0,8.93,-30.45,-30.83,0,*70
1506582057.34,26266,16.0,74738.5,8.95,-30.01,-30.39,0,*74
1506582058.58,26267,16.06,74738.5,8.95,-30.39,-30.73,0,*70
1506582059.83,26268,16.0,74738.8,9.01,-29.89,-30.11,0,*74
1506582061.08,26269,16.0,74738.5,8.97,-30.11,-30.51,0,*76
1506582062.31,26270,16.0,74736.8,8.99,-29.51,-29.83,0,*7B
1506582063.54,26271,16.06,74742.0,8.99,-29.67,-30.01,0,*7D
1506582064.76,26272,16.0,74742.0,9.01,-29.45,-29.79,0,*79
1506582066.01,26273,16.06,74742.0,9.01,-30.05,-30.45,0,*73
1506582067.2,26274,16.0,74742.3,9.03,-30.23,-30.45,0,*72
1506582068.42,26275,16.0,74738.5,9.03,-31.17,-31.51,0,*71
1506582069.63,26276,16.06,74744.3,9.03,-30.67,-30.83,0,*7A
1506582070.9,26277,16.0,74742.8,9.05,-30.55,-30.77,0,*77
1506582072.15,26278,16.0,74738.8,9.05,-29.89,-30.23,0,*70
1506582073.4,26279,16.0,74740.3,9.05,-30.33,-30.61,0,*7E
1506582074.62,26280,16.0,74738.5,9.05,-31.05,-31.29,0,*71
1506582075.88,26281,16.0,74742.3,9.05,-31.23,-31.57,0,*7D
1506582077.12,26282,16.06,74742.3,9.09,-30.89,-31.17,0,*77
1506582078.39,26283,16.06,74744.0,9.05,-30.77,-31.11,0,*7D
1506582079.63,26284,16.0,74736.0,9.05,-30.89,-31.29,0,*70
1506582080.86,26285,16.06,74742.3,9.09,-31.61,-31.79,0,*7F
1506582082.11,26286,16.0,74738.5,9.05,-31.45,-31.85,0,*75
1506582083.33,26287,16.06,74742.8,9.03,-31.29,-31.61,0,*72
1506582084.55,26288,16.0,74742.8,9.03,-31.33,-31.73,0,*75
1506582085.74,26289,16.06,74740.3,9.03,-31.33,-31.67,0,*71
1506582086.93,26290,16.06,74740.5,9.03,-31.29,-31.67,0,*72
1506582088.18,26291,16.0,74736.0,9.03,-31.61,-31.85,0,*73
1506582089.37,26292,16.06,74742.0,9.03,-31.01,-31.33,0,*7B
1506582090.59,26293,16.06,74742.5,9.03,-31.01,-31.51,0,*7E
1506582091.79,26294,16.06,74740.0,9.03,-30.83,-31.17,0,*70
1506582093.04,26295,16.0,74738.3,9.01,-31.45,-31.73,0,*7A
1506582094.32,26296,16.0,74738.8,9.01,-31.61,-31.91,0,*73
1506582095.6,26297,16.06,74742.8,9.01,-31.85,-32.07,0,*74
1506582096.82,26298,16.0,74742.3,9.01,-31.67,-32.01,0,*71
1506582098.04,26299,16.06,74740.3,9.01,-31.33,-31.67,0,*72
1506582099.26,26300,16.06,74744.5,8.99,-31.67,-31.91,0,*7B
1506582100.45,26301,16.0,74740.0,8.99,-31.33,-31.67,0,*72
1506582101.7,26302,16.06,74740.8,8.99,-31.57,-31.95,0,*7E
1506582102.97,26303,16.06,74740.8,8.97,-31.39,-31.91,0,*7D
1506582104.19,26304,16.0,74740.3,8.99,-31.23,-31.67,0,*76
1506582105.44,26305,16.0,74736.8,8.99,-31.57,-31.91,0,*7D
1506582106.66,26306,16.06,74742.5,8.97,-32.13,-32.39,0,*72
1506582107.91,26307,16.06,74738.0,8.97,-31.67,-31.91,0,*72
1506582109.17,26308,16.06,74742.0,8.97,-31.39,-31.73,0,*7A
1506582110.42,26309,16.06,74738.0,8.97,-31.51,-31.79,0,*7F
1506582111.69,26310,16.06,74742.8,8.97,-31.23,-31.57,0,*7E
1506582112.93,26311,16.06,74740.5,8.95,-31.39,-31.73,0,*70
1506582114.15,26312,16.06,74742.0,8.95,-31.29,-31.85,0,*7B
1506582115.4,26313,16.06,74738.5,8.95,-31.61,-31.95,0,*77
1506582116.62,26314,16.06,74738.3,8.95,-31.73,-32.01,0,*7D
1506582117.87,26315,16.06,74742.5,8.93,-31.45,-31.85,0,*70
1506582119.12,26316,16.06,74746.8,8.93,-31.85,-32.23,0,*70
1506582120.37,26317,16.06,74738.8,8.97,-31.67,-31.95,0,*77
1506582121.65,26318,16.06,74740.5,8.93,-31.61,-32.07,0,*72
1506582122.89,26319,16.06,74740.3,8.93,-31.51,-32.01,0,*76
1506582124.15,26320,16.06,74736.0,8.93,-31.45,-31.85,0,*76
1506582125.37,26321,16.06,74740.3,8.93,-31.01,-31.45,0,*7B
1506582126.61,26322,16.06,74736.3,8.93,-31.51,-32.01,0,*7E
1506582127.87,26323,16.06,74742.8,8.93,-32.01,-32.19,0,*70
1506582129.12,26324,16.06,74742.0,8.93,-31.33,-31.85,0,*73
1506582130.39,26325,16.06,74742.5,8.93,-31.51,-31.91,0,*73
1506582131.63,26326,16.06,74736.5,8.93,-31.29,-31.61,0,*70
1506582132.86,26327,16.06,74738.3,8.91,-30.95,-31.17,0,*74
1506582134.09,26328,16.06,74736.5,8.91,-32.07,-32.23,0,*76
1506582135.28,26329,16.06,74738.0,8.91,-31.17,-31.67,0,*76
1506582136.51,26330,16.06,74740.0,8.91,-31.45,-31.85,0,*75
1506582137.76,26331,16.06,74742.5,8.91,-31.73,-31.85,0,*71
1506582138.96,26332,16.06,74740.3,8.91,-31.29,-31.67,0,*71
1506582140.15,26333,16.06,74740.5,8.91,-31.29,-31.67,0,*70
1506582141.37,26334,16.0,74736.5,8.91,-31.33,-31.85,0,*70
1506582142.6,26335,16.06,74742.5,8.91,-31.29,-31.61,0,*70
1506582143.83,26336,16.06,74738.8,8.91,-31.11,-31.45,0,*7E
1506582145.03,26337,16.06,74740.0,8.91,-31.29,-31.67,0,*74
1506582146.25,26338,16.06,74736.8,8.91,-31.11,-31.33,0,*71
1506582147.51,26339,16.06,74740.0,8.91,-30.95,-31.11,0,*7D
1506582148.73,26340,16.06,74740.8,8.91,-31.01,-31.51,0,*7B
1506582149.98,26341,16.06,74740.0,8.93,-31.11,-31.45,0,*7C
1506582151.26,26342,16.06,74736.0,8.93,-30.77,-31.11,0,*7F
1506582152.5,26343,16.06,74740.0,8.93,-30.61,-31.01,0,*78
1506582153.76,26344,16.06,74736.8,8.91,-31.11,-31.51,0,*7E
1506582154.95,26345,16.06,74740.5,8.91,-31.29,-31.79,0,*7E
1506582156.15,26346,16.06,74742.8,8.91,-31.33,-31.79,0,*76
1506582157.38,26347,16.06,74736.5,8.91,-31.11,-31.45,0,*78
1506582158.63,26348,16.06,74736.0,8.89,-31.01,-31.39,0,*74
1506582159.87,26349,16.06,74738.0,8.91,-30.73,-30.95,0,*7F
1506582161.1,26350,16.06,74736.0,8.93,-30.83,-31.29,0,*7C
1506582162.37,26351,16.06,74738.8,8.93,-30.73,-30.95,0,*74
1506582163.63,26352,16.06,74738.3,8.93,-31.11,-31.45,0,*7E
1506582164.85,26353,16.06,74736.3,8.93,-31.01,-31.33,0,*7F
1506582166.1,26354,16.06,74736.3,8.93,-31.11,-31.33,0,*79
1506582167.35,26355,16.06,74738.5,8.93,-30.55,-30.83,0,*73
1506582168.57,26356,16.06,74738.5,8.93,-30.83,-31.17,0,*77
1506582169.82,26357,16.06,74736.3,8.95,-30.51,-30.89,0,*79
1506582171.05,26358,16.06,74736.3,8.95,-30.33,-30.73,0,*77
1506582172.27,26359,16.06,74738.0,8.95,-30.33,-30.73,0,*76
1506582173.52,26360,16.06,74734.8,8.95,-30.55,-30.89,0,*79
1506582174.73,26361,16.06,74738.8,8.95,-30.55,-31.05,0,*7D
1506582176.01,26362,16.06,74738.5,8.93,-30.39,-30.77,0,*76
1506582177.23,26363,16.06,74738.0,8.95,-30.73,-31.05,0,*7B
1506582178.47,26364,16.06,74738.3,8.95,-30.55,-30.89,0,*7D
1506582179.7,26365,16.06,74738.8,8.95,-30.67,-30.89,0,*7D
1506582180.95,26366,16.06,74738.0,8.95,-30.89,-31.11,0,*7E
1506582182.18,26367,16.06,74740.3,8.97,-30.83,-31.05,0,*72
1506582183.4,26368,16.06,74736.0,8.97,-30.45,-30.67,0,*72
1506582184.63,26369,16.06,74736.3,8.97,-30.67,-31.05,0,*76
1506582185.87,26370,16.06,74738.8,8.99,-30.61,-30.89,0,*73
1506582187.12,26371,16.06,74738.0,8.97,-30.45,-30.89,0,*7A
1506582188.35,26372,16.06,74738.0,8.99,-30.33,-30.73,0,*73
1506582189.62,26373,16.06,74738.5,8.97,-30.61,-30.89,0,*7E
1506582190.85,26374,16.06,74738.0,8.97,-30.83,-31.17,0,*73
1506582192.07,26375,16.06,74740.8,8.97,-31.01,-31.33,0,*7F
1506582193.32,26376,16.06,74740.5,8.97,-30.89,-31.17,0,*7B
1506582194.57,26377,16.06,74742.3,8.97,-30.73,-31.01,0,*78
1506582195.79,26378,16.06,74736.5,8.97,-30.67,-31.01,0,*72
1506582197.04,26379,16.06,74736.5,8.97,-30.73,-31.17,0,*71
1506582198.32,26380,16.06,74738.3,8.97,-30.89,-31.23,0,*75
1506582199.54,26381,16.06,74738.8,8.97,-30.67,-31.01,0,*74
1506582200.8,26382,16.06,74740.5,8.97,-30.27,-30.73,0,*77
1506582202.0,26383,16.06,74738.8,8.99,-30.83,-31.17,0,*75
1506582203.24,26384,16.06,74736.5,8.97,-31.01,-31.39,0,*7B
1506582204.43,26385,16.06,74742.8,8.99,-31.01,-31.33,0,*7E
1506582205.71,26386,16.06,74736.0,8.97,-30.73,-30.89,0,*77
1506582206.94,26387,16.06,74740.3,8.99,-30.51,-30.83,0,*72
1506582208.19,26388,16.06,74736.0,8.97,-30.33,-30.73,0,*78
1506582209.41,26389,16.06,74732.8,8.99,-30.33,-30.73,0,*77
1506582210.66,26390,16.06,74736.8,8.97,-30.73,-31.01,0,*71
1506582211.87,26391,16.06,74736.8,8.99,-31.17,-31.57,0,*7E
1506582213.07,26392,16.06,74740.0,8.99,-30.33,-30.67,0,*78
1506582214.3,26393,16.06,74738.3,8.99,-30.01,-30.33,0,*79
1506582215.5,26394,16.06,74734.5,8.99,-29.95,-30.33,0,*7B
1506582216.73,26395,16.06,74738.8,8.99,-29.79,-30.17,0,*7E
1506582217.94,26396,16.06,74742.0,9.03,-29.79,-30.05,0,*7C
1506582219.2,26397,16.06,74738.3,9.03,-29.39,-29.73,0,*70
1506582220.42,26398,16.06,74738.3,9.03,-29.35,-29.61,0,*70
1506582221.62,26399,16.06,74738.3,9.03,-29.45,-29.79,0,*7F
1506582222.87,26400,16.06,74732.8,9.05,-29.35,-29.67,0,*76
1506582224.1,26401,16.06,74738.8,9.09,-29.79,-30.17,0,*7C
1506582225.31,26402,16.06,74738.8,9.09,-29.45,-29.79,0,*70
1506582226.54,26403,16.06,74740.3,9.11,-29.23,-29.61,0,*71
1506582227.78,26404,16.06,74734.8,9.11,-28.97,-29.29,0,*74
1506582229.04,26405,16.06,74738.3,9.11,-29.07,-29.35,0,*70
1506582230.28,26406,16.06,74738.0,9.15,-29.01,-29.23,0,*76
1506582231.54,26407,16.06,74738.3,9.15,-29.23,-29.51,0,*72
1506582232.78,26408,16.06,74738.5,9.15,-30.23,-30.55,0,*79
1506582234.06,26409,16.06,74740.3,9.15,-30.17,-30.77,0,*7F
1506582235.31,26410,16.06,74738.5,9.17,-29.83,-30.77,0,*70
1506582236.56,26411,16.06,74738.5,9.15,-29.13,-30.33,0,*7A
1506582237.79,26412,16.06,74738.5,9.17,-28.63,-29.83,0,*7E
1506582239.0,26413,16.06,74738.0,9.17,-27.93,-28.85,0,*78
1506582240.22,26414,16.06,74740.5,9.17,-28.47,-28.69,0,*7B
1506582241.46,26415,16.06,74736.0,9.17,-28.47,-28.47,0,*76
1506582242.7,26416,16.06,74742.0,9.17,-29.01,-28.85,0,*78
1506582243.94,26417,16.06,74742.5,9.21,-29.13,-29.29,0,*78
1506582245.19,26418,16.06,74742.0,9.19,-29.07,-29.35,0,*74
1506582246.41,26419,16.06,74740.5,9.21,-28.15,-28.75,0,*79
1506582247.64,26420,16.06,74738.5,9.21,-27.83,-28.69,0,*7E
1506582248.87,26421,16.06,74738.8,9.21,-28.05,-28.85,0,*7C
1506582250.14,26422,16.06,74742.0,9.23,-28.91,-29.39,0,*76
1506582251.37,26423,16.06,74742.3,9.25,-29.07,-29.01,0,*74
1506582252.63,26424,16.06,74740.5,9.25,-29.51,-29.51,0,*75
1506582253.86,26425,16.06,74740.8,9.23,-30.11,-30.67,0,*73
1506582255.14,26426,16.06,74740.3,9.23,-29.29,-30.51,0,*76
1506582256.41,26427,16.06,74738.8,9.23,-28.25,-29.39,0,*7C
1506582257.68,26428,16.06,74740.8,9.23,-29.29,-29.01,0,*75
1506582258.94,26429,16.06,74738.5,9.23,-30.77,-30.33,0,*7E
1506582260.17,26430,16.06,74736.0,9.21,-30.51,-30.33,0,*70
1506582261.4,26431,16.06,74738.8,9.21,-30.33,-30.61,0,*72
1506582262.6,26432,16.06,74734.0,9.21,-30.27,-30.45,0,*72
1506582263.84,26433,16.06,74742.5,9.21,-30.45,-30.77,0,*76
1506582265.06,26434,16.06,74738.0,9.21,-30.11,-30.51,0,*74
1506582266.28,26435,16.06,74736.3,9.23,-30.23,-30.45,0,*73
1506582267.51,26436,16.06,74740.5,9.23,-30.45,-30.67,0,*70
1506582268.71,26437,16.06,74738.0,9.21,-30.11,-30.45,0,*72
1506582269.91,26438,16.06,74734.3,9.21,-30.23,-30.45,0,*7C
1506582271.16,26439,16.06,74738.3,9.23,-30.45,-30.55,0,*7E
1506582272.4,26440,16.06,74742.0,9.25,-30.39,-30.61,0,*7A
1506582273.61,26441,16.06,74738.0,9.25,-30.11,-30.45,0,*77
1506582274.85,26442,16.06,74740.3,9.23,-30.23,-30.51,0,*76
1506582276.08,26443,16.06,74736.3,9.23,-30.83,-31.29,0,*73
1506582277.33,26444,16.06,74736.5,9.23,-30.33,-30.51,0,*71
1506582278.58,26445,16.06,74742.5,9.23,-30.05,-30.33,0,*71
1506582279.83,26446,16.06,74736.3,9.23,-30.05,-30.33,0,*72
1506582281.05,26447,16.06,74738.3,9.25,-30.23,-30.55,0,*71
1506582282.3,26448,16.06,74738.5,9.25,-30.01,-30.39,0,*74
1506582283.53,26449,16.06,74738.5,9.25,-30.27,-30.61,0,*7C
1506582284.78,26450,16.06,74738.0,9.25,-30.89,-31.23,0,*77
1506582286.03,26451,16.06,74738.5,9.25,-30.17,-30.39,0,*7B
1506582287.29,26452,16.06,74736.8,9.25,-29.73,-30.17,0,*7E
1506582288.52,26453,16.06,74736.3,9.25,-29.57,-30.01,0,*7E
1506582289.76,26454,16.06,74738.5,9.31,-29.17,-29.79,0,*7F
1506582290.99,26455,16.06,74732.8,9.27,-30.23,-30.45,0,*71
1506582292.24,26456,16.06,74736.0,9.31,-29.35,-29.67,0,*72
1506582293.48,26457,16.06,74736.8,9.31,-29.29,-29.79,0,*71
1506582294.76,26458,16.06,74736.5,9.31,-28.91,-29.35,0,*74
1506582296.02,26459,16.06,74738.0,9.31,-29.17,-29.83,0,*77
1506582297.21,26460,16.06,74738.3,9.33,-28.69,-29.79,0,*72
1506582298.43,26461,16.06,74736.5,9.33,-28.21,-30.11,0,*79
1506582299.7,26462,16.06,74736.8,9.35,-27.23,-29.39,0,*73
1506582300.95,26463,16.06,74738.3,9.33,-27.39,-29.39,0,*7F
1506582302.19,26464,16.06,74738.8,9.33,-27.39,-28.75,0,*71
1506582303.46,26465,16.06,74738.5,9.35,-27.35,-28.09,0,*71
1506582304.7,26466,16.06,74740.0,9.35,-27.55,-28.09,0,*74
1506582305.97,26467,16.06,74738.5,9.35,-28.09,-28.43,0,*7D
1506582307.25,26468,16.06,74742.5,9.35,-28.21,-28.25,0,*78
1506582308.53,26469,16.06,74732.5,9.35,-28.21,-28.05,0,*7B
1506582309.75,26470,16.06,74736.3,9.37,-28.47,-28.37,0,*70
1506582310.97,26471,16.06,74738.3,9.37,-28.79,-28.15,0,*7C
1506582312.23,26472,16.06,74736.3,9.35,-29.39,-28.37,0,*78
1506582313.47,26473,16.06,74734.3,9.35,-29.45,-28.75,0,*74
1506582314.67,26474,16.06,74736.3,9.37,-29.67,-29.57,0,*70
1506582315.9,26475,16.06,74736.8,9.37,-29.51,-29.57,0,*74
1506582317.1,26476,16.06,74738.0,9.37,-28.53,-29.07,0,*71
1506582318.29,26477,16.06,74738.0,9.37,-29.07,-30.11,0,*7F
1506582319.54,26478,16.06,74738.0,9.35,-28.25,-29.95,0,*77
1506582320.76,26479,16.06,74738.0,9.33,-27.39,-29.79,0,*70
1506582322.03,26480,16.06,74736.8,9.35,-26.17,-28.91,0,*7A
1506582323.25,26481,16.06,74738.8,9.35,-25.39,-28.37,0,*78
1506582324.5,26482,16.06,74738.5,9.33,-24.11,-27.19,0,*75
1506582325.76,26483,16.06,74736.5,9.35,-22.97,-25.55,0,*70
1506582326.98,26484,16.06,74738.8,9.33,-22.31,-24.57,0,*7E
1506582328.21,26485,16.06,74736.0,9.33,-21.53,-23.39,0,*77
1506582329.42,26486,16.06,74738.5,9.35,-20.73,-21.73,0,*7D
1506582330.65,26487,16.06,74740.0,9.35,-20.63,-20.89,0,*79
1506582331.92,26488,16.06,74732.5,9.35,-20.79,-19.65,0,*75
1506582333.15,26489,16.06,74740.5,9.35,-21.73,-18.65,0,*7E
1506582334.34,26490,16.06,74740.8,9.37,-22.53,-18.99,0,*76
1506582335.57,26491,16.06,74736.8,9.39,-23.39,-18.89,0,*75
1506582336.81,26492,16.06,74736.8,9.39,-26.87,-21.57,0,*7F
1506582338.06,26493,16.06,74734.8,9.39,-28.85,-24.83,0,*7E
1506582339.26,26494,16.06,74738.0,9.43,-29.45,-27.51,0,*75
1506582340.5,26495,16.06,74736.3,9.41,-29.61,-28.85,0,*76
1506582341.73,26496,16.06,74734.5,9.43,-29.73,-29.57,0,*7A
1506582342.98,26497,16.06,74734.0,9.41,-29.83,-30.01,0,*7D
1506582344.21,26498,16.06,74738.0,9.45,-29.79,-29.95,0,*76
1506582345.46,26499,16.06,74738.5,9.41,-29.95,-30.05,0,*70
1506582346.72,26500,16.06,74738.0,9.41,-29.51,-29.95,0,*78
1506582347.95,26501,16.06,74736.0,9.43,-30.01,-30.11,0,*72
1506582349.17,26502,16.06,74736.3,9.45,-30.11,-30.27,0,*73
1506582350.43,26503,16.06,74734.8,9.45,-30.95,-31.01,0,*7B
1506582351.65,26504,16.06,74738.5,9.43,-30.67,-30.95,0,*7B
1506582352.88,26505,16.06,74740.0,9.43,-30.27,-30.51,0,*76
1506582354.12,26506,16.06,74740.3,9.43,-30.95,-31.17,0,*7F
1506582355.35,26507,16.06,74738.8,9.43,-30.77,-31.05,0,*71
1506582356.58,26508,16.06,74736.3,9.43,-31.05,-31.23,0,*7E
1506582357.78,26509,16.06,74734.5,9.43,-30.67,-31.05,0,*7E
1506582359.01,26510,16.06,74734.5,9.43,-30.73,-31.01,0,*77
1506582360.24,26511,16.06,74732.3,9.41,-30.33,-30.67,0,*71
1506582361.5,26512,16.06,74734.0,9.41,-30.33,-30.73,0,*77
1506582362.75,26513,16.06,74738.0,9.41,-30.05,-30.67,0,*76
1506582363.99,26514,16.06,74732.0,9.43,-29.39,-30.11,0,*75
1506582365.27,26515,16.06,74732.3,9.41,-29.51,-30.51,0,*7C
1506582366.5,26516,16.06,74734.3,9.43,-28.91,-30.11,0,*74
1506582367.71,26517,16.06,74732.8,9.43,-28.31,-29.67,0,*76
1506582368.97,26518,16.06,74734.0,9.43,-28.25,-28.59,0,*70
1506582370.19,26519,16.13,74736.3,9.43,-28.53,-28.79,0,*72
1506582371.41,26520,16.06,74732.5,9.43,-28.75,-28.97,0,*7C
1506582372.64,26521,16.13,74736.0,9.43,-29.61,-29.29,0,*7D
1506582373.89,26522,16.06,74734.5,9.41,-30.55,-30.33,0,*70
1506582375.17,26523,16.06,74732.5,9.41,-30.89,-31.23,0,*70
1506582376.42,26524,16.06,74736.3,9.41,-31.01,-31.23,0,*76
1506582377.67,26525,16.06,74736.3,9.41,-30.73,-31.01,0,*73
1506582378.93,26526,16.13,74736.0,9.41,-31.01,-31.23,0,*74
1506582380.19,26527,16.06,74734.3,9.43,-30.95,-31.23,0,*7B
1506582381.41,26528,16.06,74734.5,9.43,-30.77,-31.05,0,*7C
1506582382.65,26529,16.06,74734.8,9.43,-30.33,-30.77,0,*79
1506582383.87,26530,16.06,74732.0,9.39,-31.17,-31.45,0,*7B
1506582385.09,26531,16.13,74736.0,9.39,-31.05,-31.17,0,*7E
1506582386.33,26532,16.06,74734.8,9.39,-30.89,-31.33,0,*7E
1506582387.56,26533,16.06,74734.3,9.39,-31.17,-31.45,0,*78
1506582388.79,26534,16.13,74738.0,9.37,-31.11,-31.29,0,*7D
1506582390.01,26535,16.13,74734.3,9.37,-30.95,-31.17,0,*7C
1506582391.23,26536,16.06,74734.3,9.39,-31.33,-31.67,0,*7B
1506582392.42,26537,16.06,74734.0,9.37,-31.45,-31.67,0,*75
1506582393.65,26538,16.13,74736.0,9.37,-31.45,-31.61,0,*7C
1506582394.89,26539,16.06,74734.0,9.37,-30.89,-31.11,0,*7B
1506582396.09,26540,16.13,74734.3,9.37,-31.05,-31.29,0,*7B
1506582397.34,26541,16.06,74732.3,9.35,-31.01,-31.23,0,*76
1506582398.56,26542,16.06,74728.5,9.37,-31.39,-31.45,0,*7C
1506582399.79,26543,16.13,74736.5,9.37,-31.11,-31.45,0,*77
1506582401.03,26544,16.06,74732.8,9.35,-31.33,-31.57,0,*71
1506582402.23,26545,16.06,74730.0,9.33,-31.33,-31.67,0,*75
1506582403.5,26546,16.13,74734.3,9.35,-31.23,-31.57,0,*72
1506582404.72,26547,16.13,74734.8,9.33,-31.39,-31.67,0,*7D
1506582405.95,26548,16.06,74736.3,9.33,-30.83,-31.23,0,*72
1506582407.15,26549,16.13,74734.3,9.33,-31.17,-31.33,0,*7E
1506582408.39,26550,16.06,74732.5,9.33,-31.39,-31.73,0,*7E
1506582409.59,26551,16.06,74734.0,9.33,-30.83,-31.17,0,*7D
1506582410.8,26552,16.06,74732.0,9.33,-30.33,-30.67,0,*73
1506582412.01,26553,16.13,74738.0,9.33,-29.57,-30.33,0,*79
1506582413.23,26554,16.13,74734.5,9.35,-30.33,-30.27,0,*77
1506582414.49,26555,16.13,74734.8,9.35,-30.51,-30.95,0,*7B
1506582415.71,26556,16.06,74732.8,9.33,-30.05,-30.45,0,*72
1506582416.96,26557,16.06,74728.8,9.35,-30.05,-30.27,0,*71
1506582418.19,26558,16.13,74734.0,9.35,-29.95,-30.33,0,*7A
1506582419.44,26559,16.13,74732.0,9.33,-30.51,-30.77,0,*7D
1506582420.68,26560,16.06,74730.3,9.35,-30.27,-30.83,0,*7B
1506582421.95,26561,16.13,74732.5,9.35,-29.13,-30.05,0,*7B
1506582423.19,26562,16.13,74734.5,9.35,-30.45,-30.17,0,*70
1506582424.43,26563,16.13,74734.8,9.35,-30.67,-30.83,0,*7C
1506582425.68,26564,16.13,74732.8,9.35,-30.67,-30.77,0,*70
1506582426.93,26565,16.06,74730.0,9.35,-30.77,-31.01,0,*70
1506582428.16,26566,16.13,74732.3,9.35,-30.67,-31.17,0,*75
1506582429.35,26567,16.13,74734.0,9.33,-31.01,-31.67,0,*74
1506582430.57,26568,16.13,74732.5,9.33,-30.27,-31.73,0,*7B
1506582431.83,26569,16.13,74732.0,9.33,-28.59,-31.23,0,*7F
1506582433.05,26570,16.13,74732.5,9.33,-25.49,-26.71,0,*7A
1506582434.27,26571,16.13,74734.5,9.33,-27.35,-26.39,0,*7E
1506582435.53,26572,16.13,74734.3,9.31,-29.83,-28.63,0,*7D
1506582436.74,26573,16.13,74734.8,9.33,-31.17,-30.83,0,*7D
1506582437.96,26574,16.13,74734.5,9.27,-31.05,-31.17,0,*70
1506582439.18,26575,16.13,74734.8,9.27,-31.33,-31.67,0,*73
1506582440.4,26576,16.13,74734.0,9.27,-31.33,-31.67,0,*70
1506582441.67,26577,16.13,74732.5,9.27,-31.23,-31.45,0,*70
1506582442.94,26578,16.13,74734.8,9.31,-31.23,-31.61,0,*7E
1506582444.19,26579,16.13,74732.0,9.27,-30.73,-31.05,0,*7E
1506582445.45,26580,16.13,74732.3,9.27,-30.45,-30.89,0,*78
1506582446.7,26581,16.13,74732.0,9.27,-30.95,-31.29,0,*7F
1506582447.95,26582,16.06,74728.0,9.27,-30.95,-31.33,0,*77
1506582449.23,26583,16.13,74730.0,9.27,-30.95,-31.23,0,*77
1506582450.51,26584,16.13,74730.3,9.27,-30.73,-30.89,0,*79
1506582451.74,26585,16.13,74734.0,9.31,-31.17,-31.29,0,*77
1506582452.96,26586,16.13,74734.0,9.27,-31.05,-31.33,0,*7B
1506582454.18,26587,16.13,74732.0,9.27,-31.33,-31.79,0,*71
1506582455.41,26588,16.13,74730.3,9.27,-31.45,-31.79,0,*7F
1506582456.66,26589,16.13,74734.5,9.27,-32.13,-32.45,0,*72
1506582457.88,26590,16.13,74732.8,9.25,-31.51,-32.01,0,*7D
1506582459.1,26591,16.13,74728.3,9.25,-31.51,-32.01,0,*7C
1506582460.35,26592,16.13,74728.5,9.23,-31.29,-31.91,0,*7C
1506582461.58,26593,16.13,74730.0,9.23,-29.79,-31.29,0,*72
1506582462.83,26594,16.13,74732.5,9.25,-27.99,-29.89,0,*70
1506582464.08,26595,16.13,74734.3,9.23,-27.39,-29.61,0,*7B
1506582465.3,26596,16.13,74734.3,9.25,-25.87,-28.79,0,*71
1506582466.55,26597,16.13,74732.8,9.23,-25.65,-26.97,0,*74
1506582467.81,26598,16.13,74734.8,9.25,-26.77,-25.97,0,*7E
1506582469.03,26599,16.13,74732.3,9.25,-27.13,-26.17,0,*77
1506582470.28,26600,16.13,74728.5,9.27,-27.03,-26.81,0,*78
1506582471.53,26601,16.13,74732.5,9.25,-27.35,-26.93,0,*7D
1506582472.74,26602,16.13,74732.0,9.25,-29.57,-28.31,0,*72
1506582473.98,26603,16.13,74736.5,9.25,-30.77,-30.39,0,*78
1506582475.19,26604,16.13,74736.8,9.25,-31.33,-31.29,0,*7E
1506582476.39,26605,16.13,74736.5,9.25,-31.45,-31.67,0,*74
1506582477.61,26606,16.13,74728.5,9.25,-31.29,-31.51,0,*78
1506582478.88,26607,16.13,74732.3,9.23,-30.51,-30.95,0,*78
1506582480.11,26608,16.13,74736.3,9.25,-30.89,-31.05,0,*7C
1506582481.33,26609,16.13,74732.8,9.25,-30.61,-31.05,0,*7B
1506582482.52,26610,16.13,74734.3,9.25,-31.05,-31.33,0,*75
1506582483.77,26611,16.13,74732.0,9.25,-31.61,-31.85,0,*7B
1506582485.03,26612,16.13,74732.3,9.23,-30.95,-31.17,0,*7F
1506582486.28,26613,16.13,74732.0,9.25,-30.55,-30.77,0,*73
1506582487.52,26614,16.13,74736.3,9.25,-30.05,-30.39,0,*7B
1506582488.78,26615,16.13,74732.5,9.23,-30.27,-30.51,0,*72
1506582490.0,26616,16.13,74734.8,9.25,-30.01,-30.23,0,*76
1506582491.27,26617,16.13,74730.8,9.27,-30.01,-30.39,0,*7E
1506582492.52,26618,16.13,74732.8,9.31,-30.39,-30.67,0,*76
1506582493.76,26619,16.13,74732.3,9.27,-30.05,-30.27,0,*7B
1506582494.99,26620,16.13,74728.0,9.31,-29.79,-30.11,0,*70
1506582496.24,26621,16.13,74732.0,9.31,-29.51,-30.11,0,*7B
1506582497.46,26622,16.13,74736.3,9.31,-28.97,-29.95,0,*77
1506582498.68,26623,16.13,74734.3,9.33,-28.63,-29.57,0,*71
1506582499.94,26624,16.13,74734.5,9.33,-28.05,-28.91,0,*7D
1506582501.19,26625,16.13,74732.3,9.33,-28.09,-28.25,0,*7F
1506582502.41,26626,16.13,74732.3,9.33,-29.89,-28.97,0,*7C
1506582503.68,26627,16.13,74736.5,9.31,-30.55,-30.39,0,*7B